Regional Weather Roundup
Issued by NWS

Home | Current Version | Previous Version | Graphics & Text | Print | Product List | Glossary On
Versions: 1 2 3 4 5 6 7 8 9 10 11 12 13 14 15 16 17 18 19 20 21 22 23 24 25 26 27 28 29 30 31 32 33 34 35 36 37 38 39 40 41 42 43 44 45 46 47 48 49 50
000
ASUS45 KCYS 260710
RWRWY

WYOMING REGIONAL WEATHER ROUNDUP
NATIONAL WEATHER SERVICE CHEYENNE WY
100 AM MDT SUN APR 26 2015

NOTE:  "FAIR" INDICATES FEW OR NO CLOUDS BELOW 12,000 FEET
WITH NO SIGNIFICANT WEATHER AND/OR OBSTRUCTIONS TO VISIBILITY.

WYZ001-260800-
YELLOWSTONE NATIONAL PARK

CITY           SKY/WX    TMP DP  RH WIND       PRES   REMARKS
LK YELLOWSTONE   N/A     31  29  92 CALM      29.83F
W YELLOWSTONE  NOT AVBL

$$
WYZ002>013-054>058-071-098>099-260800-
NORTHERN WYOMING

CITY           SKY/WX    TMP DP  RH WIND       PRES   REMARKS
JACKSON        CLOUDY    39  28  65 N10       29.76S WCI  32
CODY           CLOUDY    41  32  70 NW8       29.85S
GREYBULL       CLOUDY    43  32  65 N5        29.81S
WORLAND        CLOUDY    44  35  70 N3        29.83R
SHERIDAN       CLOUDY    35  32  88 CALM      29.90F
BUFFALO        CLOUDY    39  33  79 E3        29.91R
GILLETTE       CLOUDY    40  35  83 NE8       29.91R WCI  34
HULETT         CLOUDY    37  37 100 NE5       29.92S WCI  34
NEWCASTLE      CLOUDY    41  41 100 NW5       29.86S

$$
WYZ014>020-022>026-101>103-260800-
CENTRAL WYOMING

CITY           SKY/WX    TMP DP  RH WIND       PRES   REMARKS
BIG PINEY      LGT RAIN  36  34  92 NE5       29.77S WCI  32
PINEDALE       LGT RAIN  34  34 100 E8        29.79S WCI  27
DUBOIS         MIX PCPN  32  32 100 CALM      29.79F
LANDER         CLOUDY    41  37  86 CALM      29.79S
RIVERTON       CLOUDY    40  34  79 E16       29.82R WCI  31
CASPER         CLOUDY    40  32  73 NE16      29.85S WCI  31
DOUGLAS        CLOUDY    42  37  82 N8        29.87F

$$
WYZ021-027>030-104>119-260800-
SOUTHERN WYOMING

CITY           SKY/WX    TMP DP  RH WIND       PRES   REMARKS
EVANSTON       LGT RAIN  35  34  96 N6        29.72F VSB 1/2 WCI  30
KEMMERER       CLOUDY    36  34  93 N9        29.74S WCI  29
FORT BRIDGER   PTSUNNY   39  39 100 N5        29.74F
ROCK SPRINGS   CLOUDY    42  33  70 SE13      29.74S
DIXON          PTSUNNY   43  36  74 E10       29.79F
RAWLINS        LGT RAIN  42  32  67 NE8       29.81S
SARATOGA       RAIN      39  36  87 W6        29.81F WCI  35
LARAMIE        RAIN      40  37  89 S6        29.82S
CHEYENNE       RAIN      42  39  89 E12       29.82R FOG
TORRINGTON     FAIR      50  43  77 E10       29.81S
PINE BLUFFS    RAIN      45  41  87 E9G16     29.81S

$$



USA.gov is the U.S. government's official web portal to all federal, state and local government web resources and services.